TimeEDT,TemperatureF,Dew PointF,Humidity,Sea Level PressureIn,VisibilityMPH,Wind Direction,Wind SpeedMPH,Gust SpeedMPH,PrecipitationIn,Events,Conditions,WindDirDegrees,DateUTC
12:53 AM,75.0,70.0,84,30.03,6.0,SSW,5.8,-,N/A,,Haze,200,2013-06-23 04:53:00
1:53 AM,75.0,70.0,84,30.03,6.0,SSW,4.6,-,N/A,,Haze,210,2013-06-23 05:53:00
2:53 AM,73.0,69.1,87,30.01,6.0,SW,3.5,-,N/A,,Partly Cloudy,220,2013-06-23 06:53:00
3:53 AM,73.0,69.1,87,30.01,5.0,SSW,4.6,-,N/A,,Clear,200,2013-06-23 07:53:00
4:53 AM,73.0,69.1,87,30.03,5.0,WSW,5.8,-,N/A,,Clear,250,2013-06-23 08:53:00
5:53 AM,72.0,68.0,87,30.02,5.0,South,4.6,-,N/A,,Clear,190,2013-06-23 09:53:00
6:53 AM,73.0,68.0,84,30.04,4.0,SSW,4.6,-,N/A,,Haze,210,2013-06-23 10:53:00
7:53 AM,75.9,69.1,79,30.03,5.0,South,4.6,-,N/A,,Haze,190,2013-06-23 11:53:00
8:53 AM,78.1,68.0,71,30.04,8.0,SSW,9.2,-,N/A,,Clear,200,2013-06-23 12:53:00
9:53 AM,80.1,66.9,64,30.02,10.0,SSW,10.4,19.6,N/A,,Clear,210,2013-06-23 13:53:00
10:53 AM,82.0,66.0,58,30.02,10.0,SW,11.5,-,N/A,,Clear,220,2013-06-23 14:53:00
11:53 AM,84.0,64.0,51,30.03,10.0,SSW,11.5,19.6,N/A,,Clear,210,2013-06-23 15:53:00
12:53 PM,86.0,66.9,53,30.03,10.0,SSW,12.7,-,N/A,,Clear,200,2013-06-23 16:53:00
1:53 PM,88.0,66.0,48,30.02,10.0,SW,13.8,19.6,N/A,,Clear,220,2013-06-23 17:53:00
2:53 PM,90.0,66.0,45,30.00,10.0,SSW,13.8,19.6,N/A,,Clear,210,2013-06-23 18:53:00
3:53 PM,91.0,63.0,39,29.99,10.0,SW,15.0,21.9,N/A,,Clear,230,2013-06-23 19:53:00
4:53 PM,91.0,64.0,41,29.97,10.0,WSW,10.4,20.7,N/A,,Clear,240,2013-06-23 20:53:00
5:53 PM,90.0,64.0,42,29.97,10.0,WSW,10.4,18.4,N/A,,Clear,240,2013-06-23 21:53:00
6:53 PM,89.1,64.9,45,29.96,10.0,WSW,9.2,-,N/A,,Clear,250,2013-06-23 22:53:00
7:53 PM,87.1,64.9,48,29.96,10.0,WSW,5.8,-,N/A,,Clear,240,2013-06-23 23:53:00
8:53 PM,84.9,66.0,53,29.96,10.0,SSW,4.6,-,N/A,,Clear,210,2013-06-24 00:53:00
9:53 PM,82.0,66.0,58,29.98,10.0,South,5.8,-,N/A,,Clear,190,2013-06-24 01:53:00
10:53 PM,81.0,66.0,60,29.99,10.0,SSW,8.1,-,N/A,,Clear,210,2013-06-24 02:53:00
11:53 PM,79.0,64.9,62,30.00,10.0,WSW,4.6,-,N/A,,Clear,250,2013-06-24 03:53:00